Regional Weather Roundup
Issued by NWS Kansas City/Pleasant Hill, MO

Home | Current Version | Previous Version | Text Only | Print | Product List | Glossary On
Versions: 1 2 3 4 5 6 7 8 9 10 11 12 13 14 15 16 17 18 19 20 21 22 23 24 25 26 27 28 29 30 31 32 33 34 35 36 37 38 39 40 41 42 43 44 45 46 47 48 49 50
000
ASUS43 KEAX 301311
RWREAX

WEATHER ROUNDUP FOR EASTERN KANSAS AND NORTHWEST MISSOURI
NATIONAL WEATHER SERVICE KANSAS CITY/PLEASANT HILL MO
800 AM CDT THU OCT 30 2014

KSZ040-057-103>105-MOZ028-029-037-043-301400-
...KANSAS CITY METROPOLITAN AREA...

CITY           SKY/WX    TMP DP  RH WIND       PRES   REMARKS
K.C. INTL      MOCLDY    48  41  76 S8        30.00S HAZE
K.C. DOWNTOWN  MOCLDY    54  40  59 NW6       30.01R
LEES SUMMIT    CLOUDY    52  40  63 SW12      30.01S
OLATHE - IXD   MOCLDY    46  40  79 S5        30.01S
OLATHE - OJC   MOCLDY    49  41  74 S8        30.00F
LAWRENCE       MOCLDY    46  41  82 CALM      30.01R

$$

MOZ001>008-011>017-020>025-030>033-038>040-044>046-053-054-301400-
...NORTHERN AND CENTRAL MISSOURI...

CITY           SKY/WX    TMP DP  RH WIND       PRES   REMARKS
ST. JOSEPH     CLOUDY    44  39  82 E3        29.99F
MOSBY          PTSUNNY   45  39  81 CALM      30.02S
WHITEMAN AFB   PTCLDY    46  40  77 SW13      30.02F
CLINTON        MOCLDY    48  43  81 S12       30.04F
SEDALIA        CLOUDY    48  36  63 S8        30.06S
WARSAW         NOT AVBL
MARSHALL       CLOUDY    46  37  71 E3        30.08R
CHILLICOTHE      N/A     48  36  63 CALM      30.05R
MOBERLY        CLOUDY    46  36  66 SE13      30.07F
KIRKSVILLE     LGT RAIN  44  39  82 SE14      30.06F

$$

MOZ041-047>049-056>058-063>065-088>090-097-301400-
...EASTERN AND SOUTHERN MISSOURI...

CITY           SKY/WX    TMP DP  RH WIND       PRES   REMARKS
ST. LOUIS INTL PTCLDY    42  36  79 E5        30.15S
SPIRIT OF STL  PTCLDY    34  33  96 CALM      30.13F
COLUMBIA       MOCLDY    41  35  79 SE10      30.08F WCI  35
JEFFERSON CITY PTCLDY    38  35  89 SE7       30.10F WCI  33
MEXICO         CLOUDY    45  45 100 SE6       30.09
HANNIBAL       MOCLDY    43  34  70 SE5       30.10S
ROLLA          CLEAR     41  31  67 S9        30.09S
LEBANON        CLEAR     45  34  65 S8        30.09F
OSAGE BEACH    CLEAR     41  32  70 SE7       30.08S
SPRINGFIELD    PTCLDY    45  36  70 S10       30.09F
BRANSON        PTCLDY    37  36  93 CALM      30.13R
NEVADA         CLOUDY    50  41  71 S7        30.05S
JOPLIN         PTCLDY    52  40  63 S10       30.07F
WEST PLAINS    CLEAR     41  30  65 CALM      30.15S

$$

IAZ060-094-KSZ022-034>040-054-083-096-NEZ052-066-093-301400-
...KANSAS...SOUTHEAST NEBRASKA AND IOWA...

CITY           SKY/WX    TMP DP  RH WIND       PRES   REMARKS
TOPEKA         MOCLDY    51  40  65 CALM      30.01R
MANHATTAN      CLEAR     46  36  68 SW3       30.03R
EMPORIA        MOCLDY    51  37  58 W12       30.01R
CHANUTE        MOCLDY    52  42  69 S15       30.03F
WICHITA        PTCLDY    46  35  65 SW8       30.06R
OMAHA          PTCLDY    37  34  89 N6        30.03R WCI  32
LINCOLN        CLEAR     42  35  76 NW8       30.06R
FALLS CITY     PTCLDY    41  38  89 W8        30.00R
LAMONI         MOCLDY    44  36  73 S3        30.00R
DES MOINES     MOCLDY    44  35  70 SE12      30.02F

$$




USA.gov is the U.S. government's official web portal to all federal, state and local government web resources and services.